Location: Foulognes
(49.1413°N, 0.8183°W)
Time: 12:23:28
(UTC+00:00)

CENTAUR R/B - Pass Details

Date: 21 October 2019
Orbit: 779 x 1409 km, 63.4° (Epoch: 19 November)

Event Time Altitude Azimuth Distance (km) Brightness Sun altitude
Rises 20:22:30 0° 229° (SW) 3,486 5.7 -32.9°
Reaches altitude 10° 20:24:52 10° 232° (SW) 2,620 5.0 -33.3°
Enters shadow 20:29:57 60° 265° (W) 1,147 2.9 -34.0°
